EIDW

Dublin Airport

Airport
ICAO code
EIDW
IATA Code
DUB
Summary
ICAO Region
EUR
ICAO Territory
Location

Collinstown, Fingal,

Serving
Dublin
Elevation
242 ft
Coordinates
53° 25' 41" N , 6° 15' 20" W
KCC
Metar
Observation
EIDW 042230Z 28007KT 9999 FEW014 02/00 Q1042 NOSIG
Station
Dublin Airport
Date/Time
2023-02-04 22:30:00
Wind direction
280°
Wind speed
07 kts
Lowest cloud amount
few clouds
Temperature
2°C
Dew point
0°C
Humidity
86%
QNH
1042 hPa
Weather condition
n/a

Description

International airport serving the city of Dublin.

Climatology

Temperate Marine climate/Oceanic climate (Köppen climate classification Cfb). Moderately cool summer and comparatively warm winter with a temperature range of only 14°C. Prevailing south-westerly winds from the Atlantic Ocean.

Runways

Designator Length Width Surface Rops
11/29 1339 61 ASP Yes/Yes
16/34 2072 61 ASP Yes/Yes
10/28 2637 45 CON Yes/Yes

SKYbrary Partners:

Safety knowledge contributed by: